Hourly Data Report for February 05, 2016

All times are specified in Local Standard Time (LST). Add 1 hour to adjust for Daylight Saving Time where and when it is observed.

Metadata including Station Name, Province, Latitude, Longitude, Elevation, Climate ID, WMO ID, TC ID
PUVIRNITUQ A
QUEBEC
Latitude: 60°03'08.000" N Longitude: 77°17'15.000" W Elevation: 25.30 m
Climate ID: 7106223 WMO ID: TC ID: YPX
Hourly Data Report for February 5, 2016
Temp Definition
°C

Dew Point Temp Definition
°C

Rel Hum Definition
%

Wind Dir Definition
10's deg
Wind Spd Definition
km/h

Visibility Definition
km

Stn Press Definition
kPa

Hmdx Definition

Wind Chill Definition

Weather Definition

00:00 Legend Double Dagger -31.7 -35.2 72 7 22 16.1 101.58 -46 LegendNANA
01:00 Legend Double Dagger -31.3 -34.8 72 7 22 16.1 101.57 -45 LegendNANA
02:00 Legend Double Dagger -31.8 -35.3 72 7 21 16.1 101.57 -46 LegendNANA
03:00 Legend Double Dagger -31.8 -35.3 72 8 18 16.1 101.58 -45 LegendNANA
04:00 Legend Double Dagger -32.0 -35.6 71 8 22 16.1 101.61 -46 LegendNANA
05:00 Legend Double Dagger -31.7 -35.2 72 8 18 16.1 101.63 -45 LegendNANA
06:00 Legend Double Dagger -31.7 -35.3 71 8 21 16.1 101.66 -46 LegendNANA
07:00 Legend Double Dagger -32.5 -36.1 71 8 21 16.1 101.66 -47 LegendNANA
08:00 Legend Double Dagger -32.2 -35.7 72 9 15 16.1 101.65 -44 LegendNANA
09:00 Legend Double Dagger -31.8 -35.4 71 9 17 16.1 101.65 -44 LegendNANA
10:00 Legend Double Dagger -30.5 -33.9 73 10 9 16.1 101.65 -39 LegendNANA
11:00 Legend Double Dagger -30.5 -34.0 72 7 11 16.1 101.66 -40 LegendNANA
12:00 Legend Double Dagger -29.6 -33.0 73 9 13 16.1 101.63 -40 LegendNANA
13:00 Legend Double Dagger -29.2 -32.5 74 11 13 16.1 101.62 -40 LegendNANA
14:00 Legend Double Dagger -28.7 -32.0 74 11 13 16.1 101.62 -39 LegendNANA
15:00 Legend Double Dagger -28.9 -32.2 74 9 13 16.1 101.64 -39 LegendNANA
16:00 Legend Double Dagger -29.7 -33.0 74 11 15 16.1 101.63 -41 LegendNANA
17:00 Legend Double Dagger -29.0 -32.1 75 13 13 16.1 101.63 -39 LegendNANA
18:00 Legend Double Dagger -28.9 -32.2 74 12 13 16.1 101.64 -39 LegendNANA
19:00 Legend Double Dagger -30.2 -33.4 74 14 11 16.1 101.63 -40 LegendNANA
20:00 Legend Double Dagger -30.8 -34.2 73 13 9 16.1 101.64 -40 LegendNANA
21:00 Legend Double Dagger -29.7 -33.0 74 14 9 4.8 101.60 -38 Snow
22:00 Legend Double Dagger -30.1 -33.3 74 13 8 16.1 101.55 -38 LegendNANA
23:00 Legend Double Dagger -31.0 -34.4 73 11 9 16.1 101.50 -40 LegendNANA

Notes on Data Quality.

Legend
  • E = Estimated
  • M = Missing
  • NA = Not Available
  • ‡ = Partner data that is not subject to review by the National Climate Archives